"2009-08-07 00:00:00",1129249,4.488,71.29,1.496,0.083,20.82,109.4287,23.43,24.48,32.85,0,111.2,13.15,24.26,33.3
"2009-08-07 00:00:30",1129250,4.502,74.12,0.691,0.089,20.85,109.4074,23.37,24.46,32.99,0,111.2,13.15,24.21,36.1
"2009-08-07 00:01:00",1129251,4.379,74.62,0.898,0.078,20.89,109.4034,23.36,24.44,33.14,0,111.2,13.15,24.20,36.6
"2009-08-07 00:01:30",1129252,4.492,76.93,1.829,0.077,20.82,109.4034,23.36,24.42,33.16,0,111.2,13.15,24.20,38.9
"2009-08-07 00:02:00",1129253,4.699,79.38,1.667,0.07,20.77,109.3916,23.33,24.4,33.35,0,111.2,13.15,24.17,41.4
"2009-08-07 00:02:30",1129254,4.812,82.4,1.299,0.091,20.72,109.3723,23.28,24.39,33.47,0,111.2,13.15,24.12,44.4
"2009-08-07 00:03:00",1129255,5.247,82.4,1.788,0.197,20.69,109.3697,23.28,24.38,33.65,0,111.2,13.15,24.11,44.4
"2009-08-07 00:03:30",1129256,5.24,76.69,0.669,0.054,20.93,109.3591,23.25,24.35,33.62,0,111.2,13.15,24.08,38.7
"2009-08-07 00:04:00",1129257,5.332,78.05,0.593,0.064,20.86,109.3388,23.2,24.32,33.93,0,111.2,13.15,24.03,40.1
"2009-08-07 00:04:30",1129258,5.527,79.45,1.014,0.073,20.91,109.3357,23.19,24.31,34.45,0,111.1,13.15,24.02,41.4
"2009-08-07 00:05:00",1129259,5.733,80.5,0.946,0.049,20.99,109.3253,23.16,24.28,34.63,0,111.1,13.15,23.99,42.5
"2009-08-07 00:05:30",1129260,5.759,81.5,0.329,0.048,20.97,109.3034,23.11,24.24,34.63,0,111.1,13.15,23.94,43.5
"2009-08-07 00:06:00",1129261,5.745,77.99,1.491,0.052,21.05,109.3023,23.1,24.23,34.73,0,111.1,13.16,23.93,40.0
"2009-08-07 00:06:30",1129262,5.785,75.49,0.916,0.089,21.01,109.2846,23.06,24.19,34.85,0,111.1,13.16,23.89,37.5
"2009-08-07 00:07:00",1129263,5.817,73.57,1.157,0.043,21.06,109.2695,23.02,24.17,35.08,0,111.1,13.16,23.85,35.6
"2009-08-07 00:07:30",1129264,5.745,73.06,0.734,0.054,21.05,109.2686,23.02,24.14,35.24,0,111.1,13.16,23.85,35.1
"2009-08-07 00:08:00",1129265,5.694,73.27,1.07,0.056,21.04,109.2678,23.01,24.13,35.42,0,111.1,13.16,23.85,35.3
"2009-08-07 00:08:30",1129266,5.711,72.16,2.115,0.073,21.07,109.2496,22.97,24.1,35.45,0,111.1,13.16,23.80,34.2
"2009-08-07 00:09:00",1129267,5.78,68.68,0.618,0.036,21.07,109.2396,22.94,24.07,35.35,0,111.1,13.16,23.77,30.7
"2009-08-07 00:09:30",1129268,5.788,68.12,0.547,0.048,21.11,109.2435,22.95,24.05,35.45,0,111.1,13.16,23.78,30.1
"2009-08-07 00:10:00",1129269,5.916,67.55,1.126,0.069,21.18,109.2493,22.97,24.04,35.58,0,111.1,13.16,23.80,29.6
"2009-08-07 00:10:30",1129270,5.915,67.09,0.745,0.06,21.19,109.2542,22.98,24.03,35.57,0,111.1,13.16,23.81,29.1
"2009-08-07 00:11:00",1129271,5.917,66.13,0.273,0.053,21.17,109.2416,22.95,24,35.5,0,111.1,13.16,23.78,28.1
"2009-08-07 00:11:30",1129272,6.025,65.2,0.784,0.055,21.12,109.2343,22.93,23.99,35.47,0,111.1,13.16,23.76,27.2
"2009-08-07 00:12:00",1129273,6.001,62.89,1.248,0.127,21.11,109.2302,22.92,23.98,35.51,0,111.1,13.16,23.75,24.9
"2009-08-07 00:12:30",1129274,5.78,61.93,0.462,0.09,21.13,109.2288,22.91,23.97,35.53,0,111.1,13.16,23.75,23.9
"2009-08-07 00:13:00",1129275,5.567,62.58,0.582,0.046,21.15,109.2294,22.92,23.95,35.41,0,111.1,13.16,23.75,24.6
"2009-08-07 00:13:30",1129276,5.59,63.71,0.596,0.11,21.17,109.2304,22.92,23.94,35.39,0,111.1,13.16,23.75,25.7
"2009-08-07 00:14:00",1129277,5.885,64.74,0.823,0.087,21.07,109.2319,22.92,23.94,35.44,0,111.1,13.16,23.75,26.7
"2009-08-07 00:14:30",1129278,5.97,63.78,1.185,0.079,21.03,109.2328,22.92,23.93,35.34,0,111.1,13.16,23.76,25.8
"2009-08-07 00:15:00",1129279,5.952,63.12,0.831,0.045,21.12,109.2353,22.93,23.92,35.34,0,111.1,13.16,23.76,25.1
"2009-08-07 00:15:30",1129280,5.849,62.46,0.464,0.056,20.97,109.2353,22.93,23.91,35.29,0,111.1,13.17,23.76,24.5
"2009-08-07 00:16:00",1129281,5.799,61.94,0.396,0.047,20.95,109.238,22.94,23.92,35.19,0,111.1,13.17,23.77,23.9
"2009-08-07 00:16:30",1129282,5.921,60.67,0.544,0.04,20.96,109.238,22.94,23.91,35.23,0,111.1,13.16,23.77,22.7
"2009-08-07 00:17:00",1129283,5.95,60.34,0.43,0.035,20.97,109.2372,22.94,23.91,35.31,0,111.1,13.16,23.77,22.3
"2009-08-07 00:17:30",1129284,6.203,59.65,0.579,0.058,20.95,109.233,22.92,23.9,35.5,0,111,13.16,23.76,21.7
"2009-08-07 00:18:00",1129285,6.315,58.35,0.503,0.033,20.94,109.2234,22.9,23.91,35.52,0,111,13.16,23.73,20.3
"2009-08-07 00:18:30",1129286,6.323,57.16,0.686,0.091,20.92,109.213,22.87,23.9,35.55,0,111,13.16,23.70,19.2
"2009-08-07 00:19:00",1129287,6.05,57.28,0.826,0.086,20.76,109.2111,22.87,23.89,35.48,0,111,13.16,23.70,19.3
"2009-08-07 00:19:30",1129288,5.947,58.67,0.641,0.054,20.61,109.2052,22.85,23.88,35.68,0,111,13.16,23.68,20.7
"2009-08-07 00:20:00",1129289,5.903,59.7,0.835,0.075,20.54,109.2043,22.85,23.87,35.81,0,111,13.16,23.68,21.7
"2009-08-07 00:20:30",1129290,5.853,57.39,1.254,0.101,20.56,109.2043,22.85,23.87,35.82,0,111,13.16,23.68,19.4
"2009-08-07 00:21:00",1129291,5.767,55.33,0.36,0.067,20.74,109.1948,22.83,23.88,35.42,0,111,13.16,23.66,17.3
"2009-08-07 00:21:30",1129292,5.655,55.81,0.236,0.056,20.88,109.1757,22.78,23.84,35.44,0,111,13.16,23.61,17.8
"2009-08-07 00:22:00",1129293,5.533,55.46,0.337,0.044,20.82,109.1706,22.76,23.83,35.59,0,111,13.16,23.60,17.5
"2009-08-07 00:22:30",1129294,5.327,55.51,0.411,0.095,20.6,109.1701,22.76,23.83,36.11,0,111,13.17,23.59,17.5
"2009-08-07 00:23:00",1129295,5.194,55.75,0.612,0.15,20.46,109.1566,22.73,23.8,36.34,0,111,13.17,23.56,17.8
"2009-08-07 00:23:30",1129296,4.736,57.68,0.96,0.123,20.4,109.1485,22.71,23.79,36.34,0,111,13.17,23.54,19.7
"2009-08-07 00:24:00",1129297,4.49,57.68,0.487,0.131,20.28,109.1409,22.69,23.76,36.29,0,111,13.17,23.52,19.7
"2009-08-07 00:24:30",1129298,4.28,58.89,0.771,0.049,20.25,109.1393,22.68,23.77,36.32,0,111,13.18,23.51,20.9
"2009-08-07 00:25:00",1129299,4.072,61.06,0.871,0.135,20.23,109.138,22.68,23.74,36.32,0,111,13.18,23.51,23.1
"2009-08-07 00:25:30",1129300,4.002,60.66,0.915,0.13,20.15,109.1181,22.63,23.73,36.39,0,111,13.18,23.46,22.7
"2009-08-07 00:26:00",1129301,3.889,62.5,1.65,0.061,20.03,109.1089,22.61,23.71,36.67,0,111,13.18,23.44,24.5
"2009-08-07 00:26:30",1129302,4.225,56.19,3.065,0.332,20.37,109.1066,22.6,23.7,36.75,0,111,13.18,23.43,18.2
"2009-08-07 00:27:00",1129303,4.434,56.66,0.943,0.173,20.48,109.0994,22.58,23.67,36.91,0,111,13.18,23.41,18.7
"2009-08-07 00:27:30",1129304,4.337,56.87,1.788,0.229,20.48,109.0791,22.53,23.65,37.15,0,111,13.18,23.36,18.9
"2009-08-07 00:28:00",1129305,4.17,56.88,1.482,0.109,20.44,109.0753,22.52,23.63,37.21,0,111,13.18,23.35,18.9
"2009-08-07 00:28:30",1129306,4.278,57.09,1.998,0.11,20.37,109.0668,22.5,23.61,37.19,0,111,13.18,23.33,19.1
"2009-08-07 00:29:00",1129307,4.199,58.25,2.588,0.156,20.26,109.0493,22.45,23.58,37.2,0,111,13.18,23.28,20.2
"2009-08-07 00:29:30",1129308,4.103,59.12,1.978,0.175,20.21,109.055,22.47,23.56,37.25,0,111,13.18,23.30,21.1
"2009-08-07 00:30:00",1129309,4.127,58.62,1.637,0.097,20.08,109.0551,22.47,23.53,37.35,0,111,13.18,23.30,20.6
"2009-08-07 00:30:30",1129310,4.007,61.93,1.414,0.118,20.06,109.0399,22.43,23.51,37.46,0,111,13.18,23.26,23.9
"2009-08-07 00:31:00",1129311,3.831,62.98,1.065,0.105,20.1,109.0277,22.4,23.5,37.39,0,111,13.18,23.23,25.0
"2009-08-07 00:31:30",1129312,3.608,63.46,0.912,0.081,20.14,109.0287,22.4,23.49,37.48,0,111,13.18,23.23,25.5
"2009-08-07 00:32:00",1129313,3.748,63.83,0.903,0.042,20.19,109.0278,22.4,23.46,37.98,0,111,13.18,23.23,25.8
"2009-08-07 00:32:30",1129314,3.674,66.66,1.255,0.066,20.09,109.0153,22.37,23.44,38.02,0,111,13.18,23.20,28.7
"2009-08-07 00:33:00",1129315,3.625,69.31,3.675,0.132,20.1,109.0018,22.33,23.43,37.8,0,111,13.18,23.16,31.3
"2009-08-07 00:33:30",1129316,3.536,69.87,3.114,0.2,20.09,108.9964,22.32,23.41,37.76,0,111,13.18,23.15,31.9
"2009-08-07 00:34:00",1129317,3.344,64.77,2.626,0.175,20.08,108.9962,22.32,23.4,37.9,0,111,13.18,23.15,26.8
"2009-08-07 00:34:30",1129318,3.272,66.91,2.095,0.165,20.13,108.9971,22.32,23.38,37.95,0,111,13.18,23.15,28.9
"2009-08-07 00:35:00",1129319,3.249,66.79,2.671,0.13,20.11,108.9971,22.32,23.37,37.99,0,111,13.18,23.15,28.8
"2009-08-07 00:35:30",1129320,2.87,66.17,1.929,0.14,20.11,108.9824,22.28,23.36,37.97,0,111,13.17,23.11,28.2
"2009-08-07 00:36:00",1129321,2.63,68.02,1.399,0.106,20.08,108.9726,22.26,23.34,38.07,0,111,13.17,23.09,30.0
"2009-08-07 00:36:30",1129322,2.81,64.48,2.732,0.183,20.17,108.9698,22.25,23.34,38.09,0,111,13.17,23.08,26.5
"2009-08-07 00:37:00",1129323,3.003,59.42,2.351,0.056,20.08,108.9701,22.25,23.31,38.12,0,111,13.17,23.08,21.4
"2009-08-07 00:37:30",1129324,2.931,57.19,2.356,0.079,20.08,108.9713,22.25,23.3,38.14,0,111,13.18,23.08,19.2
"2009-08-07 00:38:00",1129325,3.058,55.45,2.006,0.076,20.1,108.9595,22.22,23.29,38.12,0,111,13.17,23.05,17.5
"2009-08-07 00:38:30",1129326,3.235,51.32,1.753,0.103,20.07,108.9415,22.18,23.27,38.13,0,111,13.18,23.01,13.3
"2009-08-07 00:39:00",1129327,3.185,50.68,0.825,0.054,20.11,108.9376,22.17,23.25,38.29,0,111,13.18,23.00,12.7
"2009-08-07 00:39:30",1129328,3.372,54.66,1.293,0.063,20.18,108.9325,22.15,23.25,38.17,0,111,13.18,22.98,16.7
"2009-08-07 00:40:00",1129329,3.229,57.22,1.15,0.065,20.14,108.9112,22.1,23.21,38.15,0,111,13.18,22.93,19.2
"2009-08-07 00:40:30",1129330,3.23,56.33,1.103,0.044,20.18,108.9039,22.08,23.2,38.33,0,111,13.18,22.91,18.3
"2009-08-07 00:41:00",1129331,3.222,57.29,0.977,0.064,20.13,108.9036,22.08,23.16,38.55,0,111,13.18,22.91,19.3
"2009-08-07 00:41:30",1129332,3.232,62.1,3.104,0.095,20.22,108.8876,22.04,23.15,38.51,0,111,13.18,22.87,24.1
"2009-08-07 00:42:00",1129333,3.288,65.42,0.882,0.072,20.22,108.8718,22,23.14,38.43,0,111,13.18,22.83,27.4
"2009-08-07 00:42:30",1129334,3.499,65.98,0.826,0.087,20.3,108.8701,21.99,23.11,38.16,0,111,13.18,22.82,28.0
"2009-08-07 00:43:00",1129335,3.687,67.9,1.813,0.096,20.34,108.869,21.99,23.08,38.02,0,111,13.18,22.82,29.9
"2009-08-07 00:43:30",1129336,3.75,68.21,1.362,0.088,20.38,108.8575,21.96,23.05,37.99,0,111,13.18,22.79,30.2
"2009-08-07 00:44:00",1129337,3.719,68.84,1.655,0.065,20.35,108.8381,21.91,23.04,37.99,0,111,13.18,22.74,30.8
"2009-08-07 00:44:30",1129338,3.654,69.51,0.995,0.04,20.44,108.8364,21.91,23.02,38.15,0,111,13.19,22.73,31.5
"2009-08-07 00:45:00",1129339,3.517,67.21,0.541,0.1,20.27,108.8364,21.91,23.01,38.18,0,111,13.19,22.73,29.2
"2009-08-07 00:45:30",1129340,3.327,70.95,1.504,0.046,20.37,108.8339,21.9,22.99,38.2,0,110.9,13.19,22.73,32.9
"2009-08-07 00:46:00",1129341,3.202,69.52,1.33,0.058,20.39,108.8176,21.86,22.96,38.18,0,110.9,13.19,22.69,31.5
"2009-08-07 00:46:30",1129342,3.23,67.56,0.958,0.039,20.41,108.8069,21.83,22.97,38.2,0,110.9,13.19,22.66,29.6
"2009-08-07 00:47:00",1129343,3.274,63.86,2.863,0.161,20.54,108.8027,21.82,22.95,38.16,0,110.9,13.19,22.65,25.9
"2009-08-07 00:47:30",1129344,3.359,58.9,1.156,0.155,20.61,108.8027,21.82,22.94,38.17,0,110.9,13.19,22.65,20.9
"2009-08-07 00:48:00",1129345,3.745,55.64,2.377,0.121,20.51,108.803,21.82,22.92,38.22,0,110.9,13.19,22.65,17.6
"2009-08-07 00:48:30",1129346,3.668,54.69,1.07,0.104,20.41,108.8039,21.82,22.9,38.33,0,110.9,13.19,22.65,16.7
"2009-08-07 00:49:00",1129347,4.01,50.12,2.575,0.239,20.5,108.8034,21.82,22.9,38.46,0,110.9,13.19,22.65,12.1
"2009-08-07 00:49:30",1129348,4.252,45.41,1.248,0.085,20.42,108.7958,21.8,22.88,38.72,0,111,13.19,22.63,7.4
"2009-08-07 00:50:00",1129349,3.993,45.78,1.82,0.273,20.31,108.783,21.77,22.89,38.68,0,110.9,13.19,22.60,7.8
"2009-08-07 00:50:30",1129350,3.385,45.37,4.831,0.091,20.1,108.782,21.77,22.86,38.75,0,111,13.19,22.59,7.4
"2009-08-07 00:51:00",1129351,2.652,34.02,5.928,0.259,20.1,108.7836,21.77,22.84,38.91,0,110.9,13.19,22.60,356.0
"2009-08-07 00:51:30",1129352,2.154,21.33,5.653,0.333,20.02,108.7895,21.79,22.84,39.04,0,110.9,13.19,22.61,343.3
"2009-08-07 00:52:00",1129353,1.635,14.52,12.05,0.621,19.95,108.7931,21.79,22.84,39.33,0,111,13.19,22.62,336.5
"2009-08-07 00:52:30",1129354,1.195,13.64,4.699,0.285,19.76,108.794,21.8,22.82,40.38,0,110.9,13.19,22.63,335.6
"2009-08-07 00:53:00",1129355,1.297,16.27,3.635,0.23,19.83,108.7962,21.8,22.81,42,0,110.9,13.19,22.63,338.3
"2009-08-07 00:53:30",1129356,0.611,7.162,7.199,0.201,19.84,108.7947,21.8,22.8,42.21,0,110.9,13.19,22.63,329.2
"2009-08-07 00:54:00",1129357,0.886,359,9.1,0.34,19.76,108.7929,21.79,22.81,43.93,0,110.9,13.19,22.62,321.0
"2009-08-07 00:54:30",1129358,0.968,359.3,5.956,0.224,19.78,108.7836,21.77,22.81,44.9,0,110.9,13.19,22.60,321.3
"2009-08-07 00:55:00",1129359,1.272,356.7,6.095,0.353,19.78,108.7753,21.75,22.79,44.66,0,110.9,13.19,22.58,318.7
"2009-08-07 00:55:30",1129360,1.414,357,3.888,0.218,19.8,108.7689,21.73,22.78,44.6,0,110.9,13.19,22.56,319.0
"2009-08-07 00:56:00",1129361,1.274,0.865,4.675,0.189,19.81,108.7664,21.73,22.78,44.41,0,110.9,13.19,22.55,322.9
"2009-08-07 00:56:30",1129362,1.512,13.34,8.76,0.201,19.88,108.7701,21.74,22.77,43.16,0,110.9,13.19,22.56,335.3
"2009-08-07 00:57:00",1129363,1.9,33.07,3.621,0.235,20.04,108.7704,21.74,22.77,41.79,0,110.9,13.2,22.56,355.1
"2009-08-07 00:57:30",1129364,2.505,32.99,3.942,0.312,20.23,108.7584,21.71,22.74,41.28,0,110.9,13.2,22.53,355.0
"2009-08-07 00:58:00",1129365,1.916,31.38,3.548,0.25,20.18,108.741,21.66,22.73,41.1,0,110.9,13.2,22.49,353.4
"2009-08-07 00:58:30",1129366,1.847,30.2,3.319,0.235,20.12,108.7382,21.65,22.71,41.18,0,110.9,13.2,22.48,352.2
"2009-08-07 00:59:00",1129367,1.809,33.89,2.237,0.207,20.16,108.7373,21.65,22.68,41.27,0,110.9,13.2,22.48,355.9
"2009-08-07 00:59:30",1129368,1.635,29.18,2.135,0.168,20.15,108.7165,21.6,22.68,41.37,0,110.9,13.2,22.43,351.2
"2009-08-07 01:00:00",1129369,1.437,19.7,6.288,0.3,20.03,108.7047,21.57,22.67,41.41,0,110.9,13.2,22.40,341.7
"2009-08-07 01:00:30",1129370,0.574,4.562,17,0.402,19.97,108.7045,21.57,22.63,41.53,0,110.9,13.2,22.39,326.6
"2009-08-07 01:01:00",1129371,0.931,11.77,8.38,0.498,19.98,108.7033,21.56,22.61,41.89,0,110.9,13.2,22.39,333.8
"2009-08-07 01:01:30",1129372,1.446,0.688,10.91,0.424,19.87,108.6896,21.53,22.59,43.88,0,110.9,13.2,22.36,322.7
"2009-08-07 01:02:00",1129373,1.326,1.106,12.25,0.48,19.83,108.6755,21.49,22.58,46.57,0,110.9,13.2,22.32,323.1
"2009-08-07 01:02:30",1129374,1.739,5.956,12.47,0.441,19.81,108.6707,21.48,22.57,47.35,0,110.9,13.2,22.31,328.0
"2009-08-07 01:03:00",1129375,1.915,6.72,6.869,0.556,19.88,108.6707,21.48,22.56,46.53,0,110.9,13.2,22.31,328.7
"2009-08-07 01:03:30",1129376,2.107,7.298,4.859,0.414,19.88,108.6699,21.48,22.53,46.57,0,110.9,13.2,22.31,329.3
"2009-08-07 01:04:00",1129377,1.885,4.395,3.923,0.392,19.85,108.6491,21.43,22.52,46.58,0,110.9,13.2,22.25,326.4
"2009-08-07 01:04:30",1129378,2.293,11.75,1.081,0.178,19.8,108.6378,21.4,22.5,46.16,0,110.9,13.2,22.22,333.8
"2009-08-07 01:05:00",1129379,2.117,8.82,2.493,0.057,19.85,108.637,21.39,22.49,45.56,0,110.9,13.2,22.22,330.8
"2009-08-07 01:05:30",1129380,2.014,7.7,2.557,0.056,20.23,108.6358,21.39,22.46,43.67,0,110.9,13.2,22.22,329.7
"2009-08-07 01:06:00",1129381,1.977,14.97,2.907,0.096,20.31,108.6238,21.36,22.44,42.62,0,110.9,13.2,22.19,337.0
"2009-08-07 01:06:30",1129382,2.013,28.68,4.538,0.088,20.49,108.6038,21.31,22.41,41.45,0,110.9,13.2,22.14,350.7
"2009-08-07 01:07:00",1129383,2.138,36.91,1.107,0.056,20.62,108.6032,21.31,22.39,43.96,0,110.9,13.2,22.13,358.9
"2009-08-07 01:07:30",1129384,1.937,37.59,1.062,0.135,20.65,108.6024,21.31,22.4,45.27,0,110.9,13.2,22.13,359.6
"2009-08-07 01:08:00",1129385,1.323,31.64,4.24,0.24,20.49,108.5861,21.26,22.36,45.53,0,110.9,13.2,22.09,353.6
"2009-08-07 01:08:30",1129386,1.115,24.16,3.644,0.118,20.37,108.5732,21.23,22.35,45.15,0,110.9,13.2,22.06,346.2
"2009-08-07 01:09:00",1129387,0.584,13.35,9.95,0.193,20.29,108.5704,21.22,22.33,42.82,0,110.9,13.2,22.05,335.4
"2009-08-07 01:09:30",1129388,0.293,6.516,14.01,0.213,20.13,108.5732,21.23,22.32,41.37,0,110.9,13.2,22.06,328.5
"2009-08-07 01:10:00",1129389,0.133,3.122,16.79,0.108,20.09,108.5725,21.23,22.31,42.08,0,110.9,13.2,22.05,325.1
"2009-08-07 01:10:30",1129390,0.077,5.861,17.15,0.075,20.1,108.5697,21.22,22.29,42.23,0,110.9,13.2,22.05,327.9
"2009-08-07 01:11:00",1129391,0.393,353.9,12.18,0.202,19.99,108.5664,21.21,22.28,42.04,0,110.9,13.2,22.04,315.9
"2009-08-07 01:11:30",1129392,0.327,355.8,12.36,0.182,20.02,108.5592,21.19,22.25,42.12,0,110.9,13.2,22.02,317.8
"2009-08-07 01:12:00",1129393,0.677,351.7,8.15,0.248,19.97,108.5478,21.17,22.24,42.38,0,110.9,13.2,21.99,313.7
"2009-08-07 01:12:30",1129394,0.987,341.7,7.545,0.165,19.92,108.5449,21.16,22.24,42.46,0,110.9,13.2,21.98,303.7
"2009-08-07 01:13:00",1129395,0.928,347.7,8.6,0.138,19.92,108.5412,21.15,22.24,42.62,0,110.9,13.2,21.97,309.7
"2009-08-07 01:13:30",1129396,1.012,339,7.53,0.093,19.93,108.5412,21.15,22.22,42.68,0,110.9,13.2,21.97,301.0
"2009-08-07 01:14:00",1129397,0.903,340.4,7.602,0.084,19.95,108.5443,21.16,22.22,42.7,0,110.9,13.2,21.98,302.4
"2009-08-07 01:14:30",1129398,0.952,341.1,5.087,0.077,19.93,108.547,21.16,22.2,42.83,0,110.9,13.21,21.99,303.1
"2009-08-07 01:15:00",1129399,0.989,338,5.044,0.098,19.89,108.5501,21.17,22.2,43.28,0,110.9,13.21,22.00,300.0
"2009-08-07 01:15:30",1129400,1.411,326.3,2.806,0.086,19.88,108.5507,21.17,22.2,43.72,0,110.9,13.21,22.00,288.3
"2009-08-07 01:16:00",1129401,1.64,320.4,4.544,0.105,19.81,108.5517,21.18,22.2,44.84,0,110.9,13.21,22.00,282.4
"2009-08-07 01:16:30",1129402,1.698,328.4,4.843,0.128,19.86,108.5361,21.14,22.19,45.14,0,110.9,13.21,21.96,290.4
"2009-08-07 01:17:00",1129403,1.999,328.6,0.578,0.038,19.8,108.5311,21.12,22.17,45.7,0,110.9,13.21,21.95,290.6
"2009-08-07 01:17:30",1129404,2.099,329.4,1.4,0.135,19.81,108.5284,21.12,22.16,45.99,0,110.9,13.21,21.94,291.4
"2009-08-07 01:18:00",1129405,2.325,325.5,3.951,0.089,19.76,108.5302,21.12,22.16,46.66,0,110.9,13.21,21.95,287.5
"2009-08-07 01:18:30",1129406,2.425,317.9,1.818,0.112,19.77,108.5309,21.12,22.15,47.64,0,110.9,13.21,21.95,279.9
"2009-08-07 01:19:00",1129407,2.321,314.1,1.037,0.101,19.91,108.5295,21.12,22.15,48.63,0,110.9,13.21,21.94,276.1
"2009-08-07 01:19:30",1129408,2.334,312.3,0.894,0.06,19.9,108.5307,21.12,22.15,49,0,110.9,13.21,21.95,274.3
"2009-08-07 01:20:00",1129409,2.335,312.5,1.747,0.088,19.92,108.5325,21.13,22.15,48.73,0,110.9,13.21,21.95,274.5
"2009-08-07 01:20:30",1129410,2.309,323.7,5.979,0.123,19.97,108.5331,21.13,22.13,48.52,0,110.9,13.21,21.95,285.7
"2009-08-07 01:21:00",1129411,2.727,330.2,2.238,0.132,19.89,108.5344,21.13,22.12,47.29,0,110.9,13.21,21.96,292.2
"2009-08-07 01:21:30",1129412,2.696,328.6,1.916,0.114,19.75,108.5236,21.1,22.12,47.04,0,110.9,13.21,21.93,290.6
"2009-08-07 01:22:00",1129413,2.711,328.9,0.988,0.038,19.77,108.5144,21.08,22.11,47.21,0,110.9,13.21,21.91,290.9
"2009-08-07 01:22:30",1129414,2.783,329.6,1.035,0.059,19.73,108.5091,21.07,22.1,47.23,0,110.9,13.21,21.89,291.6
"2009-08-07 01:23:00",1129415,3.082,334,1.855,0.073,19.9,108.5049,21.06,22.1,47.23,0,110.9,13.21,21.88,296.0
"2009-08-07 01:23:30",1129416,3.184,339.6,2.08,0.136,19.82,108.5049,21.06,22.07,46.8,0,110.9,13.21,21.88,301.6
"2009-08-07 01:24:00",1129417,3.312,345.9,1.918,0.067,19.8,108.5049,21.06,22.09,46.58,0,110.9,13.21,21.88,307.9
"2009-08-07 01:24:30",1129418,3.123,344.8,1.801,0.082,19.76,108.5049,21.06,22.08,46.75,0,110.9,13.21,21.88,306.8
"2009-08-07 01:25:00",1129419,3.574,342.4,1.02,0.129,19.69,108.5032,21.05,22.06,46.62,0,110.9,13.21,21.88,304.4
"2009-08-07 01:25:30",1129420,4.056,345.5,1.705,0.136,19.61,108.4914,21.02,22.05,46.33,0,110.9,13.21,21.85,307.5
"2009-08-07 01:26:00",1129421,2.764,355.1,5.85,0.846,19.64,108.4776,20.99,22.04,46.28,0,110.9,13.21,21.81,317.1
"2009-08-07 01:26:30",1129422,2.158,2.514,5.041,0.452,19.48,108.4711,20.97,22.04,46.85,0,110.9,13.2,21.79,324.5
"2009-08-07 01:27:00",1129423,1.667,7.412,7.91,0.287,19.39,108.4711,20.97,22.04,48.03,0,110.9,13.21,21.79,329.4
"2009-08-07 01:27:30",1129424,2.166,14.37,3.738,0.281,19.34,108.4711,20.97,22.01,48.61,0,110.9,13.2,21.79,336.4
"2009-08-07 01:28:00",1129425,3.525,12.33,6.488,0.525,19.33,108.4711,20.97,22,48.61,0,110.9,13.21,21.79,334.3
"2009-08-07 01:28:30",1129426,3.607,18.22,1.824,0.286,19.23,108.4711,20.97,21.99,51.44,0,110.9,13.2,21.79,340.2
"2009-08-07 01:29:00",1129427,3.605,17.81,2.198,0.585,19.27,108.4689,20.96,22,52.65,0,110.9,13.21,21.79,339.8
"2009-08-07 01:29:30",1129428,3.894,18.26,2.236,0.578,19.28,108.4585,20.94,21.98,53.08,0,110.9,13.21,21.76,340.3
"2009-08-07 01:30:00",1129429,4.03,18.1,1.333,0.392,19.29,108.4509,20.92,21.99,53.31,0,110.9,13.21,21.74,340.1
"2009-08-07 01:30:30",1129430,4.549,19.64,1.006,0.166,19.34,108.4478,20.91,21.97,53.57,0,110.9,13.21,21.73,341.6
"2009-08-07 01:31:00",1129431,4.505,19.14,1.331,0.229,19.33,108.4455,20.9,21.99,54.1,0,110.9,13.21,21.73,341.1
"2009-08-07 01:31:30",1129432,4.123,17.58,2.831,0.592,19.34,108.4447,20.9,21.98,54.29,0,110.9,13.21,21.73,339.6
"2009-08-07 01:32:00",1129433,2.81,13.12,6.113,0.756,19.33,108.4419,20.89,21.96,54.31,0,110.9,13.21,21.72,335.1
"2009-08-07 01:32:30",1129434,3.355,14.64,3.58,0.766,19.34,108.4399,20.89,21.97,53.85,0,110.9,13.21,21.71,336.6
"2009-08-07 01:33:00",1129435,3.287,14.14,2.257,0.408,19.42,108.4394,20.89,21.95,54.67,0,110.9,13.21,21.71,336.1
"2009-08-07 01:33:30",1129436,3.291,13.54,2.291,0.42,19.44,108.4388,20.89,21.96,55.99,0,110.9,13.21,21.71,335.5
"2009-08-07 01:34:00",1129437,2.578,9.5,3.277,0.286,19.46,108.4374,20.88,21.97,56.33,0,110.9,13.21,21.71,331.5
"2009-08-07 01:34:30",1129438,3.002,3.904,4.068,0.477,19.51,108.4374,20.88,21.96,56.49,0,110.9,13.21,21.71,325.9
"2009-08-07 01:35:00",1129439,3.57,358.8,2.301,0.406,19.51,108.4374,20.88,21.95,56.54,0,110.9,13.21,21.71,320.8
"2009-08-07 01:35:30",1129440,3.343,0.251,1.822,0.286,19.5,108.4374,20.88,21.95,56.27,0,110.9,13.21,21.71,322.3
"2009-08-07 01:36:00",1129441,3.401,0.922,2.363,0.231,19.51,108.4295,20.86,21.94,57.08,0,110.9,13.21,21.69,322.9
"2009-08-07 01:36:30",1129442,3.524,358.7,2.144,0.281,19.51,108.4104,20.81,21.92,57.07,0,110.9,13.21,21.64,320.7
"2009-08-07 01:37:00",1129443,4.024,356.8,2.111,0.362,19.48,108.4036,20.8,21.9,56.65,0,110.9,13.21,21.62,318.8
"2009-08-07 01:37:30",1129444,4.525,354.8,2.562,0.473,19.44,108.4031,20.79,21.89,56.41,0,110.9,13.21,21.62,316.8
"2009-08-07 01:38:00",1129445,3.099,0.77,6.212,0.905,19.35,108.3885,20.76,21.87,56.43,0,110.9,13.21,21.58,322.8
"2009-08-07 01:38:30",1129446,3.118,6.696,5.614,0.55,19.33,108.3702,20.71,21.84,57,0,110.9,13.21,21.53,328.7
"2009-08-07 01:39:00",1129447,3.977,1.024,5.31,0.697,19.25,108.3699,20.71,21.81,57.82,0,110.9,13.21,21.53,323.0
"2009-08-07 01:39:30",1129448,3.508,0.22,3.849,0.673,19.17,108.3544,20.67,21.79,58.92,0,110.9,13.21,21.49,322.2
"2009-08-07 01:40:00",1129449,4.496,4.144,2.422,0.621,19.22,108.3367,20.62,21.76,59.34,0,110.9,13.21,21.45,326.1
"2009-08-07 01:40:30",1129450,4.189,8.04,2.323,0.628,19.19,108.3347,20.62,21.75,59.83,0,110.9,13.21,21.44,330.0
"2009-08-07 01:41:00",1129451,4.536,0.346,5.808,0.463,19.21,108.3066,20.55,21.73,59.85,0,110.9,13.21,21.37,322.3
"2009-08-07 01:41:30",1129452,4.674,354.9,3.88,0.886,19.13,108.2993,20.53,21.7,59.84,0,110.9,13.21,21.35,316.9
"2009-08-07 01:42:00",1129453,4.697,359.6,7.602,0.853,19.18,108.2715,20.46,21.65,59.51,0,110.9,13.21,21.28,321.6
"2009-08-07 01:42:30",1129454,3.4,2.189,5.675,1.16,19.23,108.2599,20.43,21.62,59.78,0,110.8,13.21,21.25,324.2
"2009-08-07 01:43:00",1129455,2.626,7.387,4.526,0.292,19.15,108.2352,20.36,21.58,61.3,0,110.8,13.21,21.19,329.4
"2009-08-07 01:43:30",1129456,3.162,3.554,3.435,0.381,19.15,108.222,20.33,21.54,61.79,0,110.8,13.21,21.15,325.6
"2009-08-07 01:44:00",1129457,3.306,3.391,1.885,0.267,19.11,108.2011,20.28,21.5,62.16,0,110.8,13.21,21.10,325.4
"2009-08-07 01:44:30",1129458,3.173,3.444,1.888,0.258,19.11,108.1792,20.22,21.46,62.45,0,110.8,13.21,21.04,325.4
"2009-08-07 01:45:00",1129459,3.634,1.533,2.309,0.371,19.14,108.1671,20.19,21.42,62.93,0,110.8,13.21,21.01,323.5
"2009-08-07 01:45:30",1129460,4.009,2.512,3.842,0.423,19.15,108.1376,20.11,21.37,63.26,0,110.8,13.21,20.93,324.5
"2009-08-07 01:46:00",1129461,4.009,1.497,3.065,0.263,19.25,108.1272,20.09,21.34,63.47,0,110.8,13.21,20.91,323.5
"2009-08-07 01:46:30",1129462,3.455,3.685,2.361,0.318,19.2,108.1005,20.02,21.28,63.64,0,110.8,13.21,20.84,325.7
"2009-08-07 01:47:00",1129463,3.571,5.329,2.775,0.266,19.22,108.0814,19.97,21.24,63.83,0,110.8,13.21,20.79,327.3
"2009-08-07 01:47:30",1129464,3.638,6.489,4.804,0.314,19.31,108.0704,19.94,21.2,63.93,0,110.8,13.22,20.76,328.5